This is the latest recevied weather packets stored in our database for station/object YO6LRV-3. If no packets are shown the sender has not sent any weather packets the latest 10 day(s).
| Time | Temp. | Humidity | Pressure | Rain* | Wind** | Luminosity | Snow |
|---|---|---|---|---|---|---|---|
| 1787992932 | 20° C | 65% | 1018.5 hPa | - | - | - | - |
| 1787991125 | 18.89° C | 67% | 1018.6 hPa | - | - | - | - |
| 1787989324 | 17.78° C | 69% | 1018.5 hPa | - | - | - | - |
| 1787986627 | 16.11° C | 71% | 1018.5 hPa | - | - | - | - |
| 1787985726 | 16.11° C | 72% | 1018.2 hPa | - | - | - | - |
| 1787983026 | 15° C | 73% | 1018 hPa | - | - | - | - |
| 1787982126 | 15° C | 72% | 1018.3 hPa | - | - | - | - |
| 1787975832 | 13.89° C | 72% | 1018.3 hPa | - | - | - | - |
| 1787974932 | 13.89° C | 72% | 1018.5 hPa | - | - | - | - |
| 1787974031 | 14.44° C | 71% | 1018.5 hPa | - | - | - | - |
| 1787973131 | 13.89° C | 71% | 1018.5 hPa | - | - | - | - |
| 1787972231 | 14.44° C | 71% | 1018.6 hPa | - | - | - | - |
| 1787971331 | 14.44° C | 70% | 1018.6 hPa | - | - | - | - |
| 1787970431 | 14.44° C | 69% | 1018.5 hPa | - | - | - | - |
| 1787969531 | 14.44° C | 68% | 1018.5 hPa | - | - | - | - |
| 1787968631 | 15° C | 67% | 1018.5 hPa | - | - | - | - |
| 1787967731 | 15° C | 66% | 1018.7 hPa | - | - | - | - |
| 1787966830 | 15° C | 66% | 1018.6 hPa | - | - | - | - |
| 1787965933 | 15.56° C | 64% | 1018.8 hPa | - | - | - | - |
| 1787965033 | 15° C | 64% | 1018.9 hPa | - | - | - | - |
| 1787964133 | 15.56° C | 64% | 1019.2 hPa | - | - | - | - |
| 1787963232 | 15.56° C | 63% | 1019.3 hPa | - | - | - | - |
| 1787962332 | 15.56° C | 63% | 1019.5 hPa | - | - | - | - |
| 1787961432 | 15.56° C | 61% | 1019.5 hPa | - | - | - | - |
| 1787960532 | 16.11° C | 61% | 1019.4 hPa | - | - | - | - |
* Rain since midnight (hover to see other rain measurements)
** Current wind speed in m/s (hover to see current wind gust speed)